Location: Newark
(35.8833°N, 14.5000°E)
Time: 20:38:29
(UTC+00:00)

BEESAT - Pass Details

Date: 19 November 2019
Orbit: 700 x 709 km, 98.6° (Epoch: 09 December)

Event Time Altitude Azimuth Distance (km) Brightness Sun altitude
Rises 03:40:28 0° 165° (SSE) 3,075 ? -24.5°
Reaches altitude 10° 03:42:43 10° 165° (SSE) 2,160 ? -24.0°
Maximum altitude 03:47:27 89° 91° (E) 706 ? -23.1°
Enters shadow 03:50:01 28° 347° (NNW) 1,316 ? -22.5°
